Location: Chandrammap?lem
(16.9200°N, 81.0051°E)
Time: 06:07:23
(UTC+00:00)

CZ-3A R/B - Pass Details

Date: 10 August 2024
Orbit: 420 x 34799 km, 24.7° (Epoch: 06 September)

Event Time Altitude Azimuth Distance (km) Brightness Sun altitude
Rises 07:54:08 0° 252° (WSW) 12,770 9.0 72.5°
Reaches altitude 10° 08:02:12 10° 253° (WSW) 13,809 9.3 70.5°
Maximum altitude 09:45:16 42° 269° (W) 28,423 13.4 45.9°
Enters shadow 17:15:37 40° 237° (WSW) 3,973 5.9 -51.5°
